Regional Weather Roundup
Issued by NWS

Home | Current Version | Previous Version | Graphics & Text | Print | Product List | Glossary On
Versions: 1 2 3 4 5 6 7 8 9 10 11 12 13 14 15 16 17 18 19 20 21 22 23 24 25 26 27 28 29 30 31 32 33 34 35 36 37 38 39 40 41 42 43 44 45 46 47 48 49 50
000
ASUS45 KTFX 231604
RWRMT
MONTANA HOURLY WEATHER ROUNDUP
NATIONAL WEATHER SERVICE GREAT FALLS MT
1004 AM MDT WED JUL 23 2014

NOTE: "FAIR" INDICATES FEW OR NO CLOUDS BELOW 12000 FEET WITH NO
SIGNIFICANT WEATHER AND/OR OBSTRUCTIONS TO VISIBILITY.

* THESE STATIONS ARE NOT UNDER NWS QUALITY CONTROL. THEY DO NOT
   REPORT WEATHER SUCH AS PRECIPITATION OR FOG.

MTZ001>007-043-231700-
WEST OF THE DIVIDE
CITY           SKY/WX    TMP DP  RH WIND       PRES   REMARKS
KALISPELL      PTCLDY    68  57  68 VRB3      30.08F
MISSOULA       SUNNY     70  55  59 SE10      30.13F
BUTTE          SUNNY     64  48  56 CALM      30.27F
MULLAN PASS    SUNNY     57  52  83 VRB7      30.19R
* ESSEX        N/A       61  53  75 NE2        N/A
* LINCOLN      N/A       65  59  81 NE3        N/A
* LOOKOUT PASS N/A       60  55  84 S9G15      N/A
* POLSON       N/A       66  57  73 NE2        N/A
* RONAN APT    SUNNY     70  61  73 N/A        N/A
* SEELEY LAKE  N/A       61  57  87 NW4G9      N/A
* THOMP F APT  SUNNY     65  45  49 NW6G21     N/A
* YAAK HILL    N/A       68  53  59 SW1        N/A
$$

MTZ008-052>055-231700-
SOUTHWEST MONTANA
CITY           SKY/WX    TMP DP  RH WIND       PRES   REMARKS
BOZEMAN        SUNNY     70  52  53 CALM      30.22F
DILLON         PTCLDY    70  48  46 NW3       30.24F
W YELLOWSTONE  PTCLDY    64  46  52 NE3       30.32F
* THREE FORKS  SUNNY     73  73 100 N/A        N/A
* BOULDER HILL N/A       65  46  50 N9         N/A
* MONIDA PASS  N/A       61  44  54 W16        N/A
* RAYNOLDS PAS N/A       61  59  93 N5         N/A
* WHITEHALL    N/A       73  53  50 SW3        N/A
* WISE RIVER   N/A       62  53  73 NE3        N/A
$$

MTZ009>010-012-014-046-048-049-054-231700-
EAST SLOPES AND CENTRAL MONTANA
CITY           SKY/WX    TMP DP  RH WIND       PRES   REMARKS
CUT BANK       CLOUDY    64  57  78 CALM      30.11F
GREAT FALLS    PTSUNNY   70  61  73 S6        30.13F
HELENA         SUNNY     73  54  51 CALM      30.15F
MALMSTROM AFB  CLOUDY    70  57  64 SE8       30.15F
* CONRAD       CLOUDY    63  63 100 N/A        N/A
* DEARBORN     N/A       71  60  68 N2         N/A
* EAST GLACIER N/A       65  50  58 W10        N/A
* MONARCH      N/A       66  49  54 E8         N/A
* ROGERS PASS  N/A       66  54  65 NE1        N/A
* SAINT MARY   N/A       63  55  75 SE2        N/A
* SWEET GRASS  N/A       60  60 100 SW12       N/A
$$

MTZ011-013-016-021-035-040-045-047-050-051-231700-
NORTH CENTRAL MONTANA
CITY           SKY/WX    TMP DP  RH WIND       PRES   REMARKS
HAVRE          LGT RAIN  66  57  73 E7        30.15S
LEWISTOWN      PTSUNNY   73  55  53 NW3       30.18F
* CHESTER      N/A       62  57  84 E3         N/A
* DENTON       N/A       75  55  50 N11G17     N/A
* GEYSER       N/A       71  55  57 W10G16     N/A
* JUDITH GAP   N/A       74  55  52 N/A        N/A
* LOMA         N/A       68  59  73 S4G14      N/A
$$

MTZ017>020-022>027-061-062-231700-
NORTHEAST MONTANA
CITY           SKY/WX    TMP DP  RH WIND       PRES   REMARKS
GLASGOW        PTCLDY    79  61  54 SE17G23   30.16S
GLENDIVE       SUNNY     73  61  66 E5        30.19F
JORDAN         PTCLDY    77  61  58 E10       30.15S
SIDNEY         SUNNY     79  63  58 CALM      30.19F
WOLF POINT     SUNNY     79  61  54 E13       30.17F
* BEAVER HILL  N/A       73  63  71 SE11G16    N/A
* CIRCLE       N/A       76  64  66 E7G12      N/A
* LINDSAY DVD  N/A       72  62  71 E10G16     N/A
* NAVAJO       N/A       72  63  73 E9         N/A
$$

MTZ028>042-056>058-231700-
SOUTHCENTRAL AND SOUTHEAST MONTANA
CITY           SKY/WX    TMP DP  RH WIND       PRES   REMARKS
BAKER          SUNNY     75  63  66 SE9       30.22F
BILLINGS       PTCLDY    70  57  64 CALM      30.13F
LIVINGSTON     SUNNY     72  54  53 NW7       30.20F
MILES CITY     PTCLDY    81  63  54 E9        30.13F HI  82
* LAUREL APT   PTCLDY    64  55  73 N/A        N/A
* ROUNDUP APT  PTCLDY    73  61  66 NE9        N/A
* ALZADA       N/A       75  63  66 NE4        N/A
* HYSHAM       N/A       75  58  56 E12G17     N/A
* LAME DEER    N/A       67  60  78 SE14G21    N/A
* REED POINT   N/A       70  55  59 W7         N/A
* ROSCOE HILL  N/A       68  48  49 N8         N/A
$$

REGIONAL REPORTS...DAKOTAS
CITY           SKY/WX    TMP DP  RH WIND       PRES   REMARKS
WILLISTON      SUNNY     79  61  54 S8        30.20F
DICKINSON      SUNNY     75  63  66 S17       30.23S
CROSBY         N/A       68  68 100 E15       30.24F
TIOGA          SUNNY     73  72  97 SE14G20   30.26F
WATFORD CITY   SUNNY     75  63  66 SE12      30.19F
BISMARCK       PTSUNNY   73  61  66 SE15      30.27F
GRAND FORKS    PTSUNNY   70  59  68 N7        30.30S
FARGO          CLOUDY    72  61  68 NE7       30.29F
BUFFALO SD     PTCLDY    75  63  66 SE6       30.17F
RAPID CITY     SUNNY     79  59  50 S20       30.23F
$$

REGIONAL REPORTS...WYOMING/IDAHO/WASHINGTON
CITY           SKY/WX    TMP DP  RH WIND       PRES   REMARKS
GILLETTE       SUNNY     75  63  66 S20       30.24F
SHERIDAN       PTCLDY    75  61  62 E8        30.17F
CODY           SUNNY     77  46  33 SE10      30.22F
YELLOWSTONE LA PTCLDY    68  45  44 VRB3      30.43S
SALMON         PTCLDY    66  54  65 NW6       30.19F
MULLAN PASS    SUNNY     57  52  83 VRB7      30.19S
SAND POINT     SUNNY     68  55  63 NE8G16    30.04F
SPOKANE        PTCLDY    72  54  53 NE9       30.00F

$$




USA.gov is the U.S. government's official web portal to all federal, state and local government web resources and services.